C/2021 Q4 ( Fuls )

Japanese version
Home page
Updated on September 9, 2021

---------------------------------------------------------------------

* Profile

Discovery Date August 26, 2021
Magnitude 20.0 mag
Discoverer David Carson Fuls (Mt. Lemmon)

* Pictures

* Orbital Elements

Epoch 2023 June 25.0 TT = JDT 2460120.5                                         
T 2023 June 10.66373 TT                                 Rudenko                 
q   7.5648947            (2000.0)            P               Q                  
z  -0.0004002      Peri.  147.01055     +0.84740832     +0.52807324             
 +/-0.0000067      Node   183.33238     -0.31907743     +0.58948294             
e   1.0030276      Incl.   71.47505     +0.42436864     -0.61126796             
From 83 observations 2020 Apr. 27-2021 Aug. 30, mean residual 0".6.             

* Magnitudes Graph

        m1 = 6.0 + 5 log d + 10.0 log r

---------------------------------------------------------------------

The orbital elements are published on M.P.E.C. 2021-Q102.
The magnitudes graphs are made with Comet for Windows.

---------------------------------------------------------------------

Copyright(C) Seiichi Yoshida (comet@aerith.net). All rights reserved.